Location: Cary
(35.7910°N, 78.7810°W)
Time: 11:06:20
(UTC-05:00)

N. Korean satellite - Pass Details

Date: 02 December 2021
Orbit: 447 x 491 km, 97.3° (Epoch: 25 January)

Event Time Altitude Azimuth Distance (km) Brightness Sun altitude
Rises 17:38:40 0° 204° (SSW) 2,540 11.0 -7.7°
Maximum altitude 17:43:36 16° 266° (W) 1,343 10.1 -8.7°
Drops below altitude 10° 17:45:48 10° 304° (NW) 1,649 9.8 -9.1°
Sets 17:48:31 0° 327° (NNW) 2,521 10.4 -9.6°
